Location: La Brionne
(46.1728°N, 1.7849°E)
Time: 06:50:40
(UTC+00:00)

USA 215 - Pass Details

Date: 16 June 2021
Orbit: 1100 x 1107 km, 123.0° (Epoch: 01 August)

Event Time Altitude Azimuth Distance (km) Brightness Sun altitude
Rises 21:36:54 0° 54° (NE) 3,923 6.2 -13.9°
Reaches altitude 10° 21:39:32 10° 61° (ENE) 2,962 5.5 -14.1°
Maximum altitude 21:45:43 43° 132° (SE) 1,493 3.5 -14.6°
Drops below altitude 10° 21:51:52 10° 203° (SSW) 2,950 5.2 -15.2°
Sets 21:54:29 0° 209° (SSW) 3,906 5.8 -15.4°
